Weather History for Hope, BC

Change the Weather History Date:

Monday, October 8, 2012

  Actual Average Record
Temperature  
Mean Temperature 62 °F -  
Max Temperature 75 °F 55 °F 75 °F (2012)
Min Temperature 48 °F 41 °F 41 °F (1997)
Degree Days  
Heating Degree Days 4    
Growing Degree Days 12 (Base 50)    
Moisture  
Dew Point 44 °F    
Average Humidity 58    
Maximum Humidity 82    
Minimum Humidity 19    
Precipitation  
Precipitation 0.00 in 0.29 in - ()
Sea Level Pressure  
Sea Level Pressure 29.96 in    
Wind  
Wind Speed 8 mph ()    
Max Wind Speed 15 mph    
Max Gust Speed -    
Visibility 9.0 miles    
Events      
Averages and records for this station are not official NWS values.
T = Trace of Precipitation, MM = Missing Value Source: Averaged Metar Reports

Daily Weather History Graph

Daily Weather History Graph

Search for Another Location

Airport:

Trip Planner

Search our weather history database for the weather conditions in past years. The results will help you decide how hot, cold, wet, or windy it might be!

Date:

Astronomy

Oct. 08, 2012 Rise Set
Actual Time 7:17 AM PDT 6:28 PM PDT
Civil Twilight 6:45 AM PDT 7:00 PM PDT
Nautical Twilight 6:08 AM PDT 7:37 PM PDT
Astronomical Twilight 5:31 AM PDT 8:14 PM PDT
Moon No Moon Rise 2:54 PM PDT (10/8)
Length of Visible Light 12h 15m
Length of Day
11h 11m
Last Quarter, 45% of the Moon is Illuminated
Oct 8
Last Quarter
Oct 15
New
Oct 21
First Quarter
Oct 29
Full
Nov 6
Last Quarter

Hourly Weather History & Observations

Time (PDT) Temp. Dew Point Humidity Pressure Visibility Wind Dir Wind Speed Gust Speed Precip Events Conditions
12:00 AM 53.6 °F 46.4 °F 77% 29.97 in 9.0 mi ESE 10.4 mph - N/A   Clear
1:00 AM 53.6 °F 44.6 °F 72% 29.96 in 9.0 mi East 9.2 mph - N/A   Clear
2:00 AM 53 °F 44 °F 62% 29.97 in - ENE 8.1 mph - -  
2:00 AM 53.6 °F 44.6 °F 72% 29.97 in 9.0 mi East 8.1 mph - N/A   Clear
3:00 AM 51.8 °F 44.6 °F 76% 29.97 in 9.0 mi ENE 8.1 mph - N/A   Clear
4:00 AM 51.8 °F 42.8 °F 71% 29.97 in 9.0 mi East 8.1 mph - N/A   Clear
5:00 AM 51 °F 43 °F 66% 29.97 in - East 15.0 mph - -  
5:00 AM 51.8 °F 42.8 °F 71% 29.98 in 9.0 mi East 15.0 mph - N/A   Clear
6:00 AM 50.0 °F 42.8 °F 76% 29.99 in 9.0 mi East 11.5 mph - N/A   Clear
7:00 AM 50.0 °F 42.8 °F 76% 30.00 in 9.0 mi ENE 5.8 mph - N/A   Clear
8:00 AM 51 °F 42 °F 62% 29.99 in - ENE 6.9 mph - -  
8:00 AM 50.0 °F 42.8 °F 76% 29.99 in 9.0 mi East 8.1 mph - N/A   Clear
9:00 AM 51.8 °F 41.0 °F 67% 30.00 in 9.0 mi East 9.2 mph - N/A   Clear
10:00 AM 57.2 °F 42.8 °F 59% 29.99 in 9.0 mi ESE 15.0 mph - N/A   Clear
11:00 AM 62 °F 43 °F 39% 29.98 in - ENE 8.1 mph - -  
11:00 AM 62.6 °F 42.8 °F 48% 29.98 in 8.0 mi East 8.1 mph - N/A   Clear
12:00 PM 66.2 °F 41.0 °F 40% 29.96 in 9.0 mi ESE 9.2 mph - N/A   Clear
1:00 PM 71.6 °F 39.2 °F 31% 29.93 in 9.0 mi East 8.1 mph - N/A   Clear
2:00 PM 74 °F 40 °F 19% 29.90 in - East 4.6 mph - -  
2:00 PM 75.2 °F 39.2 °F 27% 29.91 in 9.0 mi ESE 4.6 mph - N/A   Clear
3:00 PM 73.4 °F 44.6 °F 36% 29.90 in 9.0 mi West 10.4 mph - N/A   Clear
4:00 PM 71.6 °F 46.4 °F 41% 29.90 in 9.0 mi West 12.7 mph - N/A   Clear
5:00 PM 68 °F 47 °F 35% 29.89 in - WSW 9.2 mph - -  
5:00 PM 68.0 °F 46.4 °F 46% 29.90 in 9.0 mi West 10.4 mph - N/A   Clear
6:00 PM 68.0 °F 46.4 °F 46% 29.90 in 9.0 mi West 10.4 mph - N/A   Clear
7:00 PM 62.6 °F 48.2 °F 59% 29.92 in 9.0 mi WSW 6.9 mph - N/A   Clear
8:00 PM 58 °F 47 °F 58% 29.95 in - SW 4.6 mph - -  
8:00 PM 59.0 °F 48.2 °F 67% 29.95 in 9.0 mi SW 4.6 mph - N/A   Clear
9:00 PM 55.4 °F 46.4 °F 72% 29.97 in 9.0 mi Calm Calm - N/A   Clear
11:00 PM 51 °F 46 °F 79% 30.02 in - NE 1.2 mph - -  
11:00 PM 51.8 °F 46.4 °F 82% 30.02 in 9.0 mi Variable 2.3 mph - N/A   Clear